Time,TemperatureF,DewpointF,PressureIn,WindDirection,WindDirectionDegrees,WindSpeedMPH,WindSpeedGustMPH,Humidity,HourlyPrecipIn,Conditions,Clouds,dailyrainin,SoftwareType,DateUTC
2013-03-30 00:00:00,36.0,29.8,30.10,West,275,0.0,0.0,78,0.00,,,0.00,Wunderground v.1.15,2013-03-30 04:00:00,
2013-03-30 00:01:00,35.9,29.7,30.10,West,275,0.0,0.0,78,0.00,,,0.00,Wunderground v.1.15,2013-03-30 04:01:00,
2013-03-30 00:04:00,35.9,29.7,30.10,West,275,0.0,0.0,78,0.00,,,0.00,Wunderground v.1.15,2013-03-30 04:04:00,
2013-03-30 00:05:00,35.9,29.7,30.10,West,275,0.0,0.0,78,0.00,,,0.00,Wunderground v.1.15,2013-03-30 04:05:00,
2013-03-30 00:07:00,35.9,29.7,30.10,West,275,0.0,0.0,78,0.00,,,0.00,Wunderground v.1.15,2013-03-30 04:07:00,
2013-03-30 00:09:00,35.8,29.9,30.10,West,275,0.0,0.0,79,0.00,,,0.00,Wunderground v.1.15,2013-03-30 04:09:00,
2013-03-30 00:11:00,35.8,29.9,30.10,West,275,0.0,0.0,79,0.00,,,0.00,Wunderground v.1.15,2013-03-30 04:11:00,
2013-03-30 00:12:00,35.8,29.9,30.10,West,275,0.0,0.0,79,0.00,,,0.00,Wunderground v.1.15,2013-03-30 04:12:00,
2013-03-30 00:14:00,35.8,29.6,30.10,West,275,0.0,1.0,78,0.00,,,0.00,Wunderground v.1.15,2013-03-30 04:14:00,
2013-03-30 00:17:00,35.8,29.6,30.10,West,275,0.0,1.0,78,0.00,,,0.00,Wunderground v.1.15,2013-03-30 04:17:00,
2013-03-30 00:18:00,35.8,29.6,30.10,West,275,0.0,1.0,78,0.00,,,0.00,Wunderground v.1.15,2013-03-30 04:18:00,
2013-03-30 00:19:00,35.7,29.5,30.10,West,275,0.0,0.0,78,0.00,,,0.00,Wunderground v.1.15,2013-03-30 04:19:00,
2013-03-30 00:22:00,35.7,29.5,30.10,West,275,0.0,0.0,78,0.00,,,0.00,Wunderground v.1.15,2013-03-30 04:22:00,
2013-03-30 00:23:00,35.7,29.5,30.10,West,275,0.0,0.0,78,0.00,,,0.00,Wunderground v.1.15,2013-03-30 04:23:00,
2013-03-30 00:26:00,35.7,29.8,30.10,West,275,0.0,0.0,79,0.00,,,0.00,Wunderground v.1.15,2013-03-30 04:26:00,
2013-03-30 00:28:00,35.6,29.7,30.10,West,275,0.0,0.0,79,0.00,,,0.00,Wunderground v.1.15,2013-03-30 04:28:00,
2013-03-30 00:29:00,35.6,29.7,30.10,West,275,0.0,0.0,79,0.00,,,0.00,Wunderground v.1.15,2013-03-30 04:29:00,
2013-03-30 00:30:00,35.6,29.7,30.10,West,270,0.0,2.0,79,0.00,,,0.00,Wunderground v.1.15,2013-03-30 04:30:00,
2013-03-30 00:34:00,35.6,29.7,30.10,West,270,0.0,2.0,79,0.00,,,0.00,Wunderground v.1.15,2013-03-30 04:34:00,
2013-03-30 00:35:00,35.6,29.7,30.10,West,270,0.0,2.0,79,0.00,,,0.00,Wunderground v.1.15,2013-03-30 04:35:00,
2013-03-30 00:37:00,35.6,29.7,30.10,West,270,0.0,2.0,79,0.00,,,0.00,Wunderground v.1.15,2013-03-30 04:37:00,
2013-03-30 00:40:00,35.5,29.6,30.10,West,270,0.0,0.0,79,0.00,,,0.00,Wunderground v.1.15,2013-03-30 04:40:00,
2013-03-30 00:42:00,35.5,29.6,30.10,West,270,0.0,0.0,79,0.00,,,0.00,Wunderground v.1.15,2013-03-30 04:42:00,
2013-03-30 00:46:00,35.4,29.5,30.10,West,270,0.0,0.0,79,0.00,,,0.00,Wunderground v.1.15,2013-03-30 04:46:00,
2013-03-30 00:47:00,35.4,29.5,30.10,West,270,0.0,0.0,79,0.00,,,0.00,Wunderground v.1.15,2013-03-30 04:47:00,
2013-03-30 00:51:00,35.3,29.4,30.10,West,270,0.0,0.0,79,0.00,,,0.00,Wunderground v.1.15,2013-03-30 04:51:00,
2013-03-30 00:52:00,35.3,29.4,30.10,West,270,0.0,0.0,79,0.00,,,0.00,Wunderground v.1.15,2013-03-30 04:52:00,
2013-03-30 00:54:00,35.3,29.4,30.10,West,270,0.0,0.0,79,0.00,,,0.00,Wunderground v.1.15,2013-03-30 04:54:00,
2013-03-30 00:57:00,35.3,29.4,30.10,West,270,0.0,0.0,79,0.00,,,0.00,Wunderground v.1.15,2013-03-30 04:57:00,
2013-03-30 00:59:00,35.2,29.3,30.10,West,270,0.0,0.0,79,0.00,,,0.00,Wunderground v.1.15,2013-03-30 04:59:00,
2013-03-30 01:04:00,35.2,29.3,30.10,West,270,0.0,0.0,79,0.00,,,0.00,Wunderground v.1.15,2013-03-30 05:04:00,
2013-03-30 01:05:00,35.2,29.3,30.10,West,270,0.0,0.0,79,0.00,,,0.00,Wunderground v.1.15,2013-03-30 05:05:00,
2013-03-30 01:06:00,35.2,29.3,30.10,West,270,0.0,0.0,79,0.00,,,0.00,Wunderground v.1.15,2013-03-30 05:06:00,
2013-03-30 01:07:00,35.2,29.3,30.10,West,270,0.0,0.0,79,0.00,,,0.00,Wunderground v.1.15,2013-03-30 05:07:00,
2013-03-30 01:09:00,35.3,29.4,30.10,West,271,0.0,0.0,79,0.00,,,0.00,Wunderground v.1.15,2013-03-30 05:09:00,
2013-03-30 01:10:00,35.3,29.4,30.10,West,270,0.0,0.0,79,0.00,,,0.00,Wunderground v.1.15,2013-03-30 05:10:00,
2013-03-30 01:12:00,35.3,29.4,30.10,West,270,0.0,0.0,79,0.00,,,0.00,Wunderground v.1.15,2013-03-30 05:12:00,
2013-03-30 01:13:00,35.3,29.4,30.10,West,271,0.0,0.0,79,0.00,,,0.00,Wunderground v.1.15,2013-03-30 05:13:00,
2013-03-30 01:15:00,35.3,29.4,30.11,West,270,0.0,0.0,79,0.00,,,0.00,Wunderground v.1.15,2013-03-30 05:15:00,
2013-03-30 01:18:00,35.4,29.8,30.10,West,270,0.0,0.0,80,0.00,,,0.00,Wunderground v.1.15,2013-03-30 05:18:00,
2013-03-30 01:20:00,35.3,29.7,30.10,West,270,0.0,0.0,80,0.00,,,0.00,Wunderground v.1.15,2013-03-30 05:20:00,
2013-03-30 01:22:00,35.3,29.4,30.10,West,270,0.0,0.0,79,0.00,,,0.00,Wunderground v.1.15,2013-03-30 05:22:00,
2013-03-30 01:24:00,35.3,29.4,30.10,West,270,0.0,0.0,79,0.00,,,0.00,Wunderground v.1.15,2013-03-30 05:24:00,
2013-03-30 01:27:00,35.2,29.6,30.10,West,270,0.0,0.0,80,0.00,,,0.00,Wunderground v.1.15,2013-03-30 05:27:00,
2013-03-30 01:28:00,35.2,29.6,30.10,West,270,0.0,0.0,80,0.00,,,0.00,Wunderground v.1.15,2013-03-30 05:28:00,
2013-03-30 01:30:00,35.1,29.6,30.10,West,270,0.0,0.0,80,0.00,,,0.00,Wunderground v.1.15,2013-03-30 05:30:00,
2013-03-30 01:34:00,34.9,29.4,30.10,West,270,0.0,0.0,80,0.00,,,0.00,Wunderground v.1.15,2013-03-30 05:34:00,
2013-03-30 01:35:00,34.9,29.4,30.10,West,271,0.0,0.0,80,0.00,,,0.00,Wunderground v.1.15,2013-03-30 05:35:00,
2013-03-30 01:38:00,34.8,29.3,30.10,West,271,0.0,0.0,80,0.00,,,0.00,Wunderground v.1.15,2013-03-30 05:38:00,
2013-03-30 01:40:00,34.7,29.2,30.10,West,270,0.0,0.0,80,0.00,,,0.00,Wunderground v.1.15,2013-03-30 05:40:00,
2013-03-30 01:41:00,34.6,29.1,30.10,WNW,296,1.0,1.0,80,0.00,,,0.00,Wunderground v.1.15,2013-03-30 05:41:00,
2013-03-30 01:46:00,34.6,29.1,30.10,West,273,0.0,1.0,80,0.00,,,0.00,Wunderground v.1.15,2013-03-30 05:46:00,
2013-03-30 01:47:00,34.6,29.1,30.11,West,273,0.0,1.0,80,0.00,,,0.00,Wunderground v.1.15,2013-03-30 05:47:00,
2013-03-30 01:49:00,34.5,29.0,30.10,West,273,0.0,0.0,80,0.00,,,0.00,Wunderground v.1.15,2013-03-30 05:49:00,
2013-03-30 01:53:00,34.3,28.8,30.10,West,273,0.0,0.0,80,0.00,,,0.00,Wunderground v.1.15,2013-03-30 05:53:00,
2013-03-30 01:55:00,34.1,28.6,30.10,West,273,0.0,0.0,80,0.00,,,0.00,Wunderground v.1.15,2013-03-30 05:55:00,
2013-03-30 01:58:00,33.9,28.7,30.10,West,273,0.0,0.0,81,0.00,,,0.00,Wunderground v.1.15,2013-03-30 05:58:00,
2013-03-30 01:59:00,33.8,28.6,30.10,West,273,0.0,0.0,81,0.00,,,0.00,Wunderground v.1.15,2013-03-30 05:59:00,
2013-03-30 02:01:00,33.6,28.4,30.10,West,273,0.0,0.0,81,0.00,,,0.00,Wunderground v.1.15,2013-03-30 06:01:00,
2013-03-30 02:03:00,33.4,28.5,30.11,West,273,0.0,0.0,82,0.00,,,0.00,Wunderground v.1.15,2013-03-30 06:03:00,
2013-03-30 02:04:00,33.4,28.5,30.11,West,273,0.0,0.0,82,0.00,,,0.00,Wunderground v.1.15,2013-03-30 06:04:00,
2013-03-30 02:08:00,33.1,28.2,30.11,West,273,0.0,0.0,82,0.00,,,0.00,Wunderground v.1.15,2013-03-30 06:08:00,
2013-03-30 02:09:00,33.1,28.2,30.11,West,273,0.0,0.0,82,0.00,,,0.00,Wunderground v.1.15,2013-03-30 06:09:00,
2013-03-30 02:10:00,33.0,28.1,30.10,West,273,0.0,0.0,82,0.00,,,0.00,Wunderground v.1.15,2013-03-30 06:10:00,
2013-03-30 02:12:00,32.8,28.2,30.11,West,273,0.0,0.0,83,0.00,,,0.00,Wunderground v.1.15,2013-03-30 06:12:00,
2013-03-30 02:13:00,32.8,28.2,30.10,West,273,0.0,0.0,83,0.00,,,0.00,Wunderground v.1.15,2013-03-30 06:13:00,
2013-03-30 02:16:00,32.6,28.0,30.11,West,273,0.0,0.0,83,0.00,,,0.00,Wunderground v.1.15,2013-03-30 06:16:00,
2013-03-30 02:19:00,32.4,27.8,30.11,West,273,0.0,0.0,83,0.00,,,0.00,Wunderground v.1.15,2013-03-30 06:19:00,
2013-03-30 02:21:00,32.2,27.6,30.10,West,273,0.0,0.0,83,0.00,,,0.00,Wunderground v.1.15,2013-03-30 06:21:00,
2013-03-30 02:23:00,32.0,27.7,30.10,West,273,0.0,0.0,84,0.00,,,0.00,Wunderground v.1.15,2013-03-30 06:23:00,
2013-03-30 02:26:00,31.9,27.6,30.10,West,273,0.0,0.0,84,0.00,,,0.00,Wunderground v.1.15,2013-03-30 06:26:00,
2013-03-30 02:27:00,31.8,27.5,30.10,West,273,0.0,0.0,84,0.00,,,0.00,Wunderground v.1.15,2013-03-30 06:27:00,
2013-03-30 02:30:00,31.7,27.7,30.10,West,273,0.0,0.0,85,0.00,,,0.00,Wunderground v.1.15,2013-03-30 06:30:00,
2013-03-30 02:31:00,31.6,27.6,30.10,West,273,0.0,0.0,85,0.00,,,0.00,Wunderground v.1.15,2013-03-30 06:31:00,
2013-03-30 02:35:00,31.4,27.4,30.10,West,273,0.0,0.0,85,0.00,,,0.00,Wunderground v.1.15,2013-03-30 06:35:00,
2013-03-30 02:36:00,31.4,27.4,30.10,West,273,0.0,0.0,85,0.00,,,0.00,Wunderground v.1.15,2013-03-30 06:36:00,
2013-03-30 02:37:00,31.4,27.4,30.10,West,273,0.0,0.0,85,0.00,,,0.00,Wunderground v.1.15,2013-03-30 06:37:00,